Pope Field Airport, NC

3:39 AM EST on November 23, 2017 (GMT -0500)
Pope Field Airport

Weather History for KPOB - May, 2014

Change the Weather History Date:

Saturday, May 3, 2014

  Actual Average Record
Temperature  
Mean Temperature 64 °F -  
Max Temperature 78 °F 77 °F 92 °F (2012)
Min Temperature 52 °F 53 °F 42 °F (1978)
Growing Degree Days 14 (Base 50)    
Moisture  
Dew Point 49 °F    
Average Humidity 60    
Maximum Humidity 96    
Minimum Humidity 30    
Precipitation  
Precipitation 0.00 in - - ()
Sea Level Pressure  
Sea Level Pressure 29.90 in    
Wind  
Wind Speed 5 mph (West)    
Max Wind Speed 13 mph    
Max Gust Speed 18 mph    
Visibility 10 miles    
Events      
Averages and records for this station are not official NWS values.
T = Trace of Precipitation, MM = Missing Value Source: NWS Daily Summary

Daily Weather History Graph

Daily Weather History Graph

Search for Another Location

Airport or City:

Trip Planner

Search our weather history database for the weather conditions in past years. The results will help you decide how hot, cold, wet, or windy it might be!

Date:

Astronomy

May. 03, 2014 Rise Set
Actual Time 6:22 AM EDT 8:03 PM EDT
Civil Twilight 5:55 AM EDT 8:30 PM EDT
Nautical Twilight 5:22 AM EDT 9:03 PM EDT
Astronomical Twilight 4:48 AM EDT 9:38 PM EDT
Moon 9:52 AM EDT (5/3) No Moon Set
Length of Visible Light 14h 35m
Length of Day
13h 40m
Waxing Crescent, 19% of the Moon is Illuminated
May 3
Waxing Crescent
May 6
First Quarter
May 14
Full
May 21
Last Quarter
May 28
New

Hourly Weather History & Observations

Time (EDT) Temp. Dew Point Humidity Pressure Visibility Wind Dir Wind Speed Gust Speed Precip Events Conditions
12:58 AM 58.5 °F 50.5 °F 75% 29.91 in 10.0 mi West 5.8 mph - N/A   Mostly Cloudy
1:58 AM 58.1 °F 50.7 °F 76% 29.89 in 10.0 mi West 2.3 mph - N/A   Overcast
2:58 AM 57.2 °F 50.7 °F 79% 29.88 in 10.0 mi West 2.3 mph - N/A   Mostly Cloudy
3:58 AM 55.0 °F 52.7 °F 92% 29.91 in 10.0 mi Calm Calm - N/A   Overcast
4:58 AM 53.6 °F 51.3 °F 92% 29.90 in 10.0 mi West 2.3 mph - N/A   Scattered Clouds
5:58 AM 52.5 °F 51.4 °F 96% 29.91 in 10.0 mi Calm Calm - N/A   Mostly Cloudy
6:58 AM 52.7 °F 50.9 °F 94% 29.92 in 10.0 mi West 2.3 mph - N/A   Scattered Clouds
7:58 AM 58.8 °F 54.9 °F 87% 29.90 in 10.0 mi SW 5.8 mph - N/A   Scattered Clouds
8:58 AM 62.8 °F 55.0 °F 76% 29.91 in 10.0 mi West 4.6 mph - N/A   Clear
9:58 AM 67.3 °F 54.1 °F 63% 29.91 in 10.0 mi Variable 3.5 mph - N/A   Clear
10:58 AM 70.3 °F 54.0 °F 56% 29.91 in 10.0 mi West 4.6 mph - N/A   Clear
11:58 AM 72.3 °F 51.3 °F 47% 29.92 in 10.0 mi WNW 3.5 mph - N/A   Partly Cloudy
12:58 PM 73.8 °F 48.4 °F 41% 29.90 in 10.0 mi Variable 4.6 mph - N/A   Clear
1:56 PM 75.2 °F 46.4 °F 36% 29.88 in 10.0 mi NW 12.7 mph 17.3 mph N/A   Partly Cloudy
1:58 PM 75.4 °F 46.8 °F 36% 29.89 in 10.0 mi NNW 10.4 mph 17.3 mph N/A   Partly Cloudy
2:58 PM 76.3 °F 45.3 °F 33% 29.88 in 10.0 mi WNW 12.7 mph - N/A   Clear
3:58 PM 76.8 °F 46.0 °F 34% 29.87 in 10.0 mi NW 9.2 mph - N/A   Clear
4:58 PM 77.7 °F 44.6 °F 31% 29.86 in 10.0 mi WNW 12.7 mph 18.4 mph N/A   Clear
5:58 PM 77.4 °F 43.9 °F 30% 29.87 in 10.0 mi NW 9.2 mph - N/A   Clear
6:58 PM 75.7 °F 43.3 °F 31% 29.88 in 10.0 mi WNW 9.2 mph - N/A   Clear
7:58 PM 71.8 °F 43.3 °F 36% 29.89 in 6.0 mi West 5.8 mph - N/A   Haze
8:58 PM 65.1 °F 46.9 °F 52% 29.91 in 10.0 mi WSW 5.8 mph - N/A   Clear
9:58 PM 63.0 °F 47.3 °F 57% 29.92 in 10.0 mi Variable 1.2 mph - N/A   Clear
10:58 PM 58.5 °F 49.5 °F 72% 29.94 in 10.0 mi West 2.3 mph - N/A   Clear
11:58 PM 59.2 °F 48.0 °F 66% 29.95 in 10.0 mi West 2.3 mph - N/A   Clear